sat.trackr.live / text

‹ back to catalog

STARLINK-36504

NORAD 67462 · 2026-008T

PAYLOAD ACTIVE UNKNOWN

§ Identity

Operator
Country
US
Launch date
2026-01-14
Launch site
AFETR
Launch vehicle
Mass (kg)
RCS (m²)

Purposes: comms

External: N2YO · Heavens-Above · Gunter

§ Orbital elements

Epoch: 2026-09-19T12:01:22.092096Z

Period
94.27 min
Inclination
42.9964°
Eccentricity
0.0000351
Mean motion
15.27581143 rev/d
Perigee alt
482.8 km
Apogee alt
483.3 km
Semi-major
6,861.2 km
B*
5.3050e-4
RAAN
190.6278°
Arg perigee
302.6072°
Mean anomaly
57.4745°
Rev number
3,921

§ Raw data

STARLINK-365041 67462U 26008T   26262.50095014  .00014365  00000+0  53050-3 0  99972 67462  42.9964 190.6278 0000351 302.6072  57.4745 15.27581143 39217

JSON: /api/v1/satellites/67462 · /tle

For live sub-satellite position, see the globe view (requires WebGL).

§ Visibility from observer

Set your observer location to see the next 7 days of passes ≥ 10°. The values pass through the URL so the page stays shareable.

No JS? Fill the form by hand. The geolocation button needs JavaScript.